Temp
-10 -10 -10 -10 -10 -11 -11 -11 -10 -10 -10 -10 -10 -10 -10 -10 -10 -10 -10 -10 -9 -9 -9 -9 -9 -9 -9 -10 -9 -9 -10 -10 -10 -10 -10 -10 -10 -10 -10 -10 -10 -9 -10 -10 -11 -11 -11
-10 -10 -10 -10 -10 -10 -10 -10 -10 -10 -10 -10 -10 -9 -9 -9 -9 -9 -9 -9 -9 -9 -9 -9 -9 -9 -9 -9 -9 -10 -9 -10 -10 -10 -10 -10 -10 -10 -10 -10 -10 -10 -10 -11 -11 -12 -11
-10 -10 -10 -10 -10 -10 -10 -10 -10 -10 -10 -10 -10 -10 -10 -10 -9 -9 -9 -9 -9 -9 -9 -9 -9 -9 -9 -9 -9 -9 -9 -9 -10 -10 -10 -10 -10 -10 -10 -10 -10 -10 -10 -11 -11 -12 -11
-10 -10 -10 -10 -10 -10 -10 -10 -10 -10 -10 -10 -10 -9 -9 -9 -9 -9 -9 -9 -9 -9 -9 -8 -9 -9 -9 -9 -9 -9 -9 -9 -10 -10 -10 -10 -10 -10 -10 -10 -11 -11 -11 -11 -12 -11 -10
-10 -10 -10 -10 -10 -11 -11 -11 -11 -11 -10 -10 -10 -10 -9 -9 -9 -9 -9 -8 -8 -8 -8 -8 -9 -9 -8 -9 -9 -9 -9 -9 -9 -10 -10 -10 -10 -10 -10 -10 -11 -11 -10 -10 -10 -11 -11
-10 -10 -10 -10 -10 -10 -10 -10 -11 -10 -10 -10 -10 -10 -9 -9 -9 -9 -9 -9 -9 -9 -8 -9 -9 -9 -9 -9 -9 -9 -9 -10 -10 -10 -10 -10 -10 -11 -10 -11 -11 -11 -10 -10 -11 -11 -12
-11 -11 -11 -11 -11 -10 -10 -10 -10 -10 -10 -10 -10 -9 -9 -9 -8 -8 -9 -9 -9 -9 -9 -9 -9 -9 -9 -9 -9 -9 -10 -10 -10 -10 -10 -10 -10 -11 -12 -11 -11 -11 -11 -11 -11 -12 -11
-11 -11 -11 -11 -11 -11 -11 -10 -10 -10 -10 -9 -9 -9 -9 -9 -8 -8 -8 -8 -8 -8 -9 -9 -9 -9 -9 -9 -9 -10 -10 -10 -10 -10 -11 -10 -10 -12 -12 -12 -12 -11 -11 -11 -11 -12 -11
-11 -11 -11 -11 -11 -12 -11 -11 -11 -10 -10 -9 -9 -9 -9 -9 -9 -8 -8 -8 -9 -8 -8 -9 -9 -9 -9 -9 -9 -10 -10 -10 -10 -10 -11 -10 -11 -11 -11 -12 -12 -12 -12 -12 -11 -12 -11
-11 -11 -11 -11 -12 -12 -12 -11 -11 -11 -10 -10 -9 -9 -9 -9 -9 -9 -8 -8 -8 -8 -8 -8 -9 -10 -10 -10 -10 -10 -10 -11 -11 -11 -11 -11 -11 -11 -12 -12 -12 -12 -13 -13 -13 -12 -11
-12 -12 -12 -11 -11 -12 -11 -12 -11 -11 -11 -10 -10 -10 -10 -10 -9 -9 -9 -9 -9 -9 -9 -9 -10 -10 -10 -11 -11 -11 -11 -11 -11 -11 -12 -12 -12 -12 -12 -13 -13 -13 -13 -13 -13 -13 -12
-11 -11 -11 -11 -11 -11 -11 -11 -11 -11 -11 -11 -10 -10 -10 -10 -10 -10 -10 -10 -10 -10 -10 -10 -10 -11 -11 -11 -11 -11 -11 -12 -12 -12 -12 -12 -12 -12 -13 -13 -14 -14 -14 -14 -14 -14 -13
-11 -11 -11 -11 -11 -11 -11 -11 -11 -11 -11 -11 -11 -10 -11 -10 -11 -11 -11 -11 -11 -11 -11 -10 -11 -11 -11 -11 -12 -12 -12 -12 -13 -13 -13 -13 -13 -13 -14 -14 -14 -14 -14 -14 -14 -14 -14
-11 -11 -11 -11 -12 -12 -11 -11 -11 -11 -11 -11 -11 -11 -11 -11 -11 -11 -11 -11 -11 -11 -12 -12 -12 -12 -12 -12 -12 -12 -13 -13 -13 -13 -13 -13 -13 -14 -14 -15 -15 -15 -15 -16 -15 -15 -14
-11 -12 -12 -11 -11 -11 -11 -11 -11 -11 -11 -11 -11 -11 -11 -11 -12 -12 -12 -11 -12 -12 -12 -12 -13 -13 -13 -13 -14 -13 -13 -13 -14 -14 -14 -14 -13 -14 -15 -15 -15 -16 -16 -16 -16 -16 -15
-12 -11 -12 -11 -11 -11 -11 -11 -11 -11 -11 -11 -12 -12 -12 -12 -12 -12 -12 -12 -13 -13 -13 -14 -14 -14 -14 -14 -14 -14 -14 -14 -14 -15 -15 -15 -15 -15 -16 -16 -16 -17 -17 -18 -18 -18 -17
-11 -11 -11 -11 -11 -11 -11 -11 -11 -11 -11 -11 -11 -12 -12 -12 -13 -13 -13 -13 -14 -14 -15 -15 -15 -15 -15 -15 -15 -15 -15 -16 -16 -16 -16 -16 -16 -15 -16 -17 -18 -18 -18 -18 -18 -19 -19
-12 -12 -11 -11 -11 -11 -11 -11 -11 -11 -11 -11 -11 -11 -11 -12 -12 -13 -13 -13 -14 -15 -16 -16 -16 -16 -17 -17 -17 -17 -17 -17 -17 -17 -17 -17 -17 -17 -17 -17 -18 -18 -18 -19 -20 -20 -20
-12 -12 -12 -12 -11 -11 -11 -12 -12 -12 -12 -12 -12 -12 -13 -13 -14 -14 -14 -15 -15 -16 -17 -18 -18 -18 -18 -18 -18 -18 -18 -18 -18 -18 -18 -18 -18 -18 -17 -18 -18 -18 -19 -20 -21 -22 -20
-12 -12 -12 -12 -12 -12 -12 -12 -13 -13 -13 -13 -13 -13 -13 -14 -14 -15 -16 -16 -17 -18 -19 -19 -19 -19 -19 -19 -19 -19 -18 -19 -18 -19 -19 -19 -18 -18 -18 -20 -21 -20 -21 -22 -23 -23 -23
-13 -12 -12 -13 -13 -13 -13 -13 -14 -14 -14 -13 -14 -15 -15 -15 -16 -16 -17 -17 -19 -19 -20 -20 -20 -20 -20 -20 -20 -20 -20 -20 -20 -20 -21 -22 -21 -21 -21 -22 -23 -23 -22 -23 -25 -25 -25
-13 -13 -13 -13 -13 -13 -13 -14 -14 -15 -16 -15 -15 -16 -16 -17 -17 -18 -19 -20 -20 -21 -21 -20 -21 -22 -21 -21 -23 -23 -22 -22 -22 -22 -24 -24 -23 -23 -22 -24 -25 -24 -24 -25 -25 -26 -26
-13 -13 -13 -13 -14 -14 -15 -15 -15 -16 -16 -17 -17 -18 -19 -18 -20 -20 -21 -21 -21 -21 -21 -22 -22 -22 -23 -24 -24 -24 -24 -24 -25 -25 -25 -26 -26 -26 -24 -25 -26 -25 -25 -26 -27 -27 -27
-14 -14 -14 -14 -15 -15 -15 -15 -16 -17 -18 -19 -20 -21 -22 -21 -22 -22 -22 -23 -22 -23 -22 -23 -24 -25 -25 -26 -27 -26 -27 -27 -27 -27 -27 -27 -27 -28 -27 -26 -27 -26 -27 -27 -28 -28 -28
-15 -15 -15 -15 -15 -16 -16 -17 -18 -19 -20 -22 -23 -25 -26 -25 -24 -23 -24 -25 -25 -26 -26 -26 -28 -28 -29 -29 -29 -28 -28 -28 -27 -28 -27 -28 -28 -28 -28 -28 -28 -28 -28 -28 -29 -29 -29
-15 -15 -15 -15 -16 -16 -17 -18 -18 -20 -23 -25 -26 -28 -30 -29 -29 -28 -28 -29 -30 -29 -29 -29 -30 -30 -30 -30 -30 -29 -29 -28 -28 -28 -29 -29 -29 -29 -29 -29 -29 -29 -29 -29 -29 -29 -29
-15 -16 -15 -16 -17 -18 -19 -20 -21 -23 -26 -29 -30 -31 -31 -31 -30 -30 -30 -30 -30 -30 -30 -29 -30 -29 -30 -30 -30 -30 -29 -30 -30 -30 -30 -29 -29 -29 -29 -29 -29 -29 -29 -29 -29 -29 -29
-16 -16 -17 -18 -19 -21 -23 -26 -29 -30 -30 -31 -31 -31 -31 -31 -31 -31 -31 -30 -30 -30 -30 -30 -30 -30 -30 -30 -30 -30 -30 -30 -30 -30 -30 -30 -29 -29 -29 -29 -29 -29 -29 -29 -29 -29 -30
-18 -18 -19 -20 -22 -25 -30 -32 -32 -31 -31 -31 -31 -31 -31 -31 -31 -31 -31 -31 -30 -31 -30 -31 -30 -30 -30 -30 -30 -30 -30 -30 -30 -30 -29 -29 -29 -29 -29 -29 -29 -29 -29 -29 -29 -29 -30
Height
5831 5830 5829 5828 5826 5824 5823 5821 5819 5817 5816 5814 5813 5811 5810 5807 5806 5804 5802 5800 5798 5796 5794 5792 5789 5787 5785 5785 5781 5781 5779 5777 5775 5773 5772 5770 5769 5767 5766 5765 5762 5762 5762 5758 5757 5757 5755
5831 5829 5828 5826 5824 5822 5820 5818 5816 5814 5812 5810 5809 5807 5805 5803 5801 5799 5797 5795 5793 5791 5789 5787 5785 5783 5782 5780 5778 5776 5774 5773 5771 5768 5766 5765 5763 5761 5761 5759 5756 5757 5755 5754 5753 5750 5748
5830 5829 5827 5825 5824 5822 5819 5817 5815 5812 5810 5808 5805 5803 5801 5798 5796 5793 5791 5789 5787 5785 5783 5781 5780 5778 5777 5774 5772 5771 5768 5765 5763 5762 5759 5758 5756 5755 5754 5752 5752 5750 5748 5748 5748 5744 5739
5830 5828 5826 5824 5822 5820 5818 5816 5813 5810 5807 5804 5802 5799 5796 5794 5791 5788 5785 5783 5781 5779 5776 5773 5772 5770 5769 5767 5763 5761 5759 5757 5756 5754 5752 5750 5748 5747 5747 5744 5744 5742 5740 5741 5741 5736 5733
5829 5826 5824 5822 5820 5818 5815 5812 5809 5806 5803 5800 5797 5794 5791 5788 5785 5782 5778 5775 5773 5771 5768 5766 5765 5762 5761 5759 5755 5752 5750 5748 5746 5745 5743 5741 5739 5740 5741 5736 5735 5735 5730 5731 5733 5731 5728
5825 5823 5821 5818 5816 5813 5810 5808 5805 5801 5798 5795 5792 5788 5784 5781 5777 5774 5771 5768 5765 5764 5762 5758 5756 5755 5750 5750 5746 5744 5741 5738 5736 5735 5734 5732 5729 5732 5732 5729 5724 5723 5721 5722 5725 5725 5720
5822 5819 5817 5814 5811 5808 5805 5802 5799 5796 5792 5789 5785 5781 5777 5773 5770 5766 5764 5759 5758 5756 5753 5750 5746 5744 5741 5739 5737 5735 5731 5727 5726 5725 5723 5719 5717 5723 5722 5716 5713 5713 5711 5711 5717 5714 5707
5817 5814 5811 5808 5806 5803 5800 5797 5793 5789 5785 5781 5778 5774 5769 5764 5762 5758 5755 5751 5747 5745 5748 5740 5737 5733 5732 5731 5728 5725 5723 5719 5717 5715 5713 5711 5707 5711 5708 5706 5703 5704 5702 5704 5703 5701 5696
5811 5807 5805 5802 5798 5795 5792 5789 5785 5781 5777 5773 5769 5766 5761 5756 5753 5749 5745 5741 5738 5735 5731 5737 5730 5726 5722 5719 5716 5716 5714 5710 5707 5704 5702 5699 5702 5700 5699 5696 5696 5693 5692 5691 5690 5691 5688
5804 5800 5796 5793 5789 5787 5784 5780 5777 5773 5769 5765 5761 5757 5752 5749 5745 5740 5736 5732 5729 5725 5719 5719 5718 5717 5715 5712 5708 5704 5701 5700 5698 5695 5693 5691 5692 5690 5688 5689 5685 5683 5683 5680 5678 5676 5676
5796 5793 5789 5785 5781 5777 5774 5771 5768 5764 5760 5757 5752 5748 5743 5740 5736 5731 5728 5723 5719 5716 5711 5709 5705 5702 5700 5699 5696 5693 5691 5688 5687 5685 5684 5683 5680 5679 5678 5677 5673 5673 5671 5670 5668 5666 5663
5791 5786 5781 5776 5772 5769 5764 5761 5758 5755 5751 5747 5742 5738 5735 5729 5726 5723 5718 5714 5710 5708 5702 5700 5696 5693 5690 5687 5684 5681 5679 5677 5676 5674 5673 5671 5669 5667 5666 5664 5662 5660 5658 5657 5655 5654 5651
5782 5777 5773 5768 5762 5758 5754 5749 5746 5744 5741 5737 5731 5728 5724 5720 5716 5711 5708 5705 5701 5697 5695 5689 5685 5682 5678 5675 5672 5670 5667 5665 5663 5660 5659 5658 5656 5655 5653 5651 5650 5648 5645 5641 5639 5638 5639
5774 5768 5764 5760 5754 5749 5745 5740 5737 5733 5730 5727 5721 5717 5713 5710 5706 5701 5697 5694 5689 5686 5680 5676 5673 5669 5665 5662 5659 5656 5654 5651 5648 5644 5642 5641 5642 5638 5638 5636 5633 5630 5629 5628 5622 5624 5624
5766 5761 5755 5750 5746 5740 5735 5731 5726 5722 5719 5717 5712 5706 5703 5698 5694 5690 5686 5680 5676 5671 5667 5662 5658 5654 5651 5648 5644 5641 5638 5636 5633 5631 5629 5625 5626 5623 5620 5617 5617 5615 5612 5610 5605 5606 5605
5756 5750 5745 5739 5733 5728 5724 5718 5714 5710 5707 5704 5701 5696 5690 5685 5680 5675 5670 5666 5659 5654 5649 5646 5642 5638 5634 5631 5627 5623 5620 5618 5615 5614 5611 5609 5609 5609 5605 5603 5600 5599 5596 5594 5590 5588 5585
5745 5738 5732 5726 5721 5717 5712 5708 5703 5698 5693 5688 5685 5680 5675 5670 5665 5659 5653 5649 5643 5638 5633 5629 5625 5621 5618 5615 5611 5606 5603 5601 5598 5596 5593 5591 5590 5594 5589 5588 5586 5584 5580 5578 5574 5572 5566
5733 5727 5721 5715 5710 5705 5700 5695 5690 5684 5679 5673 5668 5663 5657 5651 5646 5640 5635 5629 5624 5618 5613 5608 5606 5603 5600 5595 5593 5590 5589 5584 5583 5581 5577 5576 5570 5573 5574 5570 5565 5563 5563 5561 5554 5555 5553
5721 5715 5711 5705 5699 5693 5687 5682 5675 5669 5661 5656 5650 5646 5638 5631 5625 5619 5613 5608 5601 5597 5593 5589 5586 5583 5580 5578 5573 5573 5572 5571 5567 5564 5559 5559 5553 5554 5557 5553 5547 5547 5545 5541 5536 5534 5533
5709 5704 5697 5691 5685 5679 5672 5665 5658 5649 5642 5637 5628 5622 5618 5610 5602 5595 5588 5586 5581 5576 5573 5569 5566 5563 5559 5558 5554 5553 5554 5551 5549 5546 5540 5537 5536 5537 5539 5534 5528 5531 5530 5525 5521 5518 5519
5696 5689 5682 5675 5669 5662 5654 5646 5638 5629 5620 5612 5605 5597 5592 5587 5578 5569 5563 5560 5559 5554 5550 5547 5546 5543 5538 5537 5535 5530 5532 5530 5529 5527 5522 5519 5517 5518 5520 5516 5511 5511 5513 5511 5506 5505 5499
5681 5674 5666 5659 5651 5643 5634 5623 5614 5605 5593 5582 5575 5567 5561 5559 5551 5547 5541 5542 5539 5534 5528 5531 5526 5522 5519 5518 5514 5513 5511 5511 5509 5510 5505 5503 5501 5500 5504 5501 5497 5495 5499 5496 5493 5492 5490
5665 5658 5650 5641 5633 5621 5611 5600 5590 5577 5563 5548 5542 5536 5525 5535 5528 5523 5523 5518 5518 5512 5513 5508 5504 5503 5500 5498 5495 5495 5494 5495 5494 5494 5491 5489 5488 5486 5485 5485 5483 5482 5487 5484 5481 5479 5479
5647 5638 5630 5620 5609 5599 5589 5577 5564 5550 5534 5521 5514 5505 5497 5499 5501 5504 5498 5494 5493 5491 5487 5487 5483 5481 5483 5478 5477 5478 5479 5479 5478 5480 5478 5475 5475 5474 5471 5471 5467 5472 5472 5471 5471 5469 5467
5629 5619 5608 5596 5585 5571 5558 5546 5532 5518 5505 5493 5487 5483 5476 5471 5478 5479 5476 5469 5470 5470 5468 5465 5469 5466 5465 5465 5464 5465 5467 5465 5468 5466 5466 5465 5463 5461 5460 5461 5459 5460 5461 5461 5460 5461 5459
5607 5596 5582 5569 5554 5539 5525 5512 5500 5489 5479 5470 5467 5463 5457 5453 5455 5459 5457 5458 5455 5454 5454 5454 5453 5454 5456 5456 5454 5453 5453 5454 5455 5456 5456 5455 5454 5453 5452 5451 5451 5451 5452 5452 5451 5451 5450
5583 5569 5554 5538 5521 5505 5490 5476 5465 5458 5454 5451 5450 5452 5448 5443 5448 5448 5448 5449 5448 5446 5443 5445 5447 5448 5449 5448 5447 5447 5446 5445 5444 5446 5447 5447 5445 5445 5444 5444 5444 5445 5445 5444 5443 5444 5439
5556 5540 5523 5507 5491 5475 5460 5450 5443 5440 5437 5436 5440 5443 5441 5438 5438 5438 5439 5440 5440 5439 5437 5438 5439 5441 5442 5441 5440 5440 5438 5437 5437 5438 5438 5438 5437 5437 5437 5437 5437 5439 5437 5436 5434 5432 5430
5528 5512 5495 5479 5465 5453 5444 5439 5433 5430 5429 5430 5434 5434 5433 5431 5433 5431 5431 5432 5431 5432 5432 5431 5431 5434 5434 5433 5433 5432 5430 5430 5430 5429 5430 5430 5431 5431 5433 5432 5431 5430 5428 5426 5424 5422 5421
Wind_Speed
8 8 8 8 8 8 7 7 6 6 7 9 11 12 13 15 17 18 19 20 20 20 20 21 22 21 20 19 25 21 23 23 24 23 23 24 25 25 23 23 25 25 24 27 29 29 29
6 5 6 6 6 6 6 7 7 8 9 10 12 13 15 16 18 20 20 20 21 22 23 23 24 24 24 24 26 26 27 26 27 27 27 28 27 29 28 27 29 27 26 26 25 27 30
3 4 5 6 7 8 8 7 7 8 9 10 12 14 15 17 19 19 20 20 20 21 23 24 24 25 26 29 29 29 30 30 29 29 29 29 30 29 29 30 29 29 30 28 23 26 31
6 6 7 7 8 7 9 10 11 12 13 14 16 16 18 20 20 22 24 24 24 25 26 27 27 27 26 28 31 33 33 33 33 32 32 32 32 29 29 32 29 31 33 29 27 32 31
11 10 11 12 13 14 14 14 16 17 19 21 22 21 24 24 24 25 26 27 26 26 28 29 30 33 30 29 32 32 34 36 36 35 36 37 37 32 32 35 33 30 37 34 30 30 32
16 16 16 16 16 18 20 21 22 23 23 24 26 26 28 27 26 27 28 30 31 27 28 29 31 32 36 36 35 35 36 38 38 38 38 39 41 37 34 37 39 38 39 36 30 29 34
24 22 21 20 21 22 22 23 27 29 30 31 31 31 31 31 27 27 27 29 31 31 28 30 33 32 33 35 38 39 39 41 41 41 39 43 44 35 38 42 44 42 42 40 30 32 41
29 30 29 28 27 26 26 29 30 32 32 33 34 35 35 35 32 29 29 30 34 38 33 38 39 40 39 36 36 37 39 43 44 44 44 45 46 40 41 43 44 44 44 40 39 38 44
35 35 34 34 34 33 32 31 32 35 36 34 33 35 36 35 34 34 35 37 37 38 41 31 36 41 42 41 39 36 36 40 43 44 45 45 41 39 40 43 43 44 45 42 44 44 45
38 38 38 39 38 37 37 35 35 36 36 35 36 38 37 34 36 37 37 38 39 40 44 44 39 32 33 34 37 39 40 39 39 41 42 44 42 43 44 43 45 46 45 48 48 48 48
37 37 39 41 42 40 39 39 38 39 40 40 40 39 39 36 37 39 40 40 40 41 46 44 44 40 40 39 39 39 38 38 40 43 44 44 45 45 46 46 49 49 49 49 50 51 52
37 38 39 43 44 43 42 42 41 41 42 43 43 42 42 42 42 43 45 45 43 42 45 45 45 44 42 42 41 41 42 42 42 43 44 44 46 48 48 49 50 52 53 53 54 55 57
44 46 47 48 45 44 44 43 43 43 44 46 46 46 45 45 47 47 47 45 44 43 43 45 44 45 46 47 47 45 45 46 47 49 49 49 50 51 51 52 53 55 56 58 59 59 58
44 43 44 44 43 44 45 44 46 45 49 49 48 48 48 49 50 49 49 49 50 49 48 49 48 49 50 50 51 51 51 52 53 55 55 55 54 54 54 54 57 58 59 60 62 61 60
45 46 46 47 52 53 54 54 50 51 53 48 49 53 52 51 51 52 52 54 54 55 55 55 56 55 55 55 57 57 57 57 58 58 58 59 58 58 58 58 57 57 57 59 60 60 63
52 54 56 55 52 52 50 47 48 50 50 52 53 53 55 55 55 56 58 58 59 60 62 61 60 61 61 61 62 62 62 63 62 61 60 60 60 59 59 59 60 59 59 56 57 59 62
56 56 54 49 49 48 50 52 52 54 55 56 56 57 59 60 62 64 65 66 66 66 66 66 65 66 65 65 65 66 66 65 65 64 63 63 65 63 62 58 55 55 57 58 60 61 64
57 50 48 47 47 50 52 54 56 58 60 63 64 65 67 69 70 71 72 73 73 71 68 69 68 67 66 66 66 66 65 64 63 62 62 62 63 63 62 61 61 61 60 58 59 58 59
51 49 49 51 51 52 56 59 62 64 66 69 70 71 74 77 78 80 81 80 79 75 72 70 69 67 65 63 63 62 61 60 60 61 61 60 61 61 61 64 65 63 60 60 57 57 62
49 51 53 55 57 59 63 66 70 73 76 77 80 81 81 84 86 88 87 84 80 76 69 64 64 61 60 58 60 59 58 60 61 62 63 64 63 63 61 61 60 60 56 54 52 54 53
53 55 58 61 64 67 70 74 77 81 84 85 86 90 90 92 94 92 89 85 77 70 65 62 61 59 60 60 60 63 61 61 61 61 61 60 63 61 60 59 56 55 57 52 49 49 54
58 62 64 67 69 73 76 81 85 88 92 95 97 98 97 96 95 90 84 78 73 68 67 62 61 60 62 61 60 60 61 60 59 58 55 54 58 57 58 52 50 54 53 51 49 46 46
65 68 70 73 75 79 84 88 92 95 99 103 102 101 100 99 89 83 73 70 67 67 65 64 64 63 62 58 57 57 55 54 53 52 52 51 50 50 55 52 50 55 47 44 42 40 40
73 75 78 82 86 89 93 97 100 103 104 103 99 96 93 91 83 75 72 67 63 62 65 62 60 59 54 54 51 51 47 46 47 46 47 48 45 45 46 46 48 45 41 38 35 35 32
80 82 87 91 95 99 100 100 102 104 103 100 92 77 66 70 70 69 59 57 55 53 54 53 43 47 39 39 41 41 40 42 40 41 40 39 35 35 38 36 37 37 33 26 28 29 33
87 90 94 96 100 103 105 106 107 107 95 75 63 53 48 51 53 48 43 41 43 40 40 41 34 24 24 28 35 33 33 34 35 32 29 27 25 27 29 32 32 23 25 31 29 30 30
92 94 96 98 100 104 108 108 103 86 57 46 39 36 36 42 37 44 28 32 42 40 28 28 22 23 25 24 30 32 26 24 23 27 23 24 27 29 25 26 25 27 26 30 34 34 33
94 95 96 98 99 99 88 67 53 46 32 29 27 30 33 43 38 33 33 29 29 23 16 11 19 26 27 30 29 22 26 27 30 31 27 25 29 28 25 22 26 26 33 36 34 35 36
93 92 91 92 85 68 46 40 39 28 17 15 18 29 31 39 37 29 23 22 23 25 22 24 27 22 25 22 33 32 34 37 27 21 19 22 22 23 28 30 32 35 39 38 37 38 38
Wind_Direction
49 36 26 21 19 12 5 3 358 350 337 329 326 327 325 322 320 317 318 316 314 312 313 313 311 311 307 300 298 301 295 294 293 289 287 289 290 290 290 290 290 293 288 286 280 281 285
60 61 53 28 22 17 7 355 351 345 341 336 332 329 322 315 312 308 306 305 304 306 305 306 305 304 303 297 296 292 293 294 291 290 290 289 287 288 287 285 282 287 283 283 284 279 278
42 19 7 1 358 358 353 348 348 348 346 343 342 339 332 321 310 303 303 303 301 302 302 303 302 302 301 293 293 292 290 290 288 287 284 285 286 287 287 282 281 280 279 283 283 273 270
325 324 324 320 318 321 323 323 324 325 326 325 323 326 324 315 308 306 304 301 298 296 296 296 296 295 294 290 291 291 292 288 285 285 285 286 283 282 287 282 280 277 277 275 268 271 277
316 309 305 306 307 308 309 308 310 314 317 317 317 318 321 317 304 295 293 297 296 295 294 294 293 293 287 285 282 285 284 284 283 283 284 283 280 277 285 283 278 275 274 275 273 279 281
306 304 302 297 295 298 303 307 308 308 308 308 312 314 317 319 318 308 297 293 293 294 296 296 293 291 291 286 280 280 281 281 280 278 278 277 276 276 280 279 276 270 278 281 283 276 269
304 300 296 294 293 295 297 302 307 308 308 309 310 311 310 312 314 313 309 303 301 299 302 295 294 293 289 287 283 282 280 279 276 274 272 271 272 276 272 268 270 274 275 278 280 270 271
306 304 304 300 296 294 295 298 299 300 302 302 302 304 308 310 311 312 312 310 309 305 299 299 300 296 294 291 286 283 283 281 278 277 273 274 273 270 266 264 265 271 275 279 274 270 274
307 305 303 301 300 299 298 295 295 295 297 299 301 303 304 306 308 308 310 309 307 306 305 295 294 297 296 296 294 286 281 280 278 275 275 274 275 269 264 263 267 268 271 272 274 273 274
302 303 303 303 298 297 298 295 295 297 297 295 296 298 300 301 301 302 301 304 305 305 304 304 304 302 298 293 290 289 285 281 276 273 272 274 274 272 270 268 267 269 268 271 272 272 273
304 303 302 300 299 299 297 295 293 296 297 297 297 302 299 298 297 297 297 297 297 299 299 306 305 305 301 295 292 292 288 282 277 275 273 272 272 271 270 271 270 271 269 269 271 272 272
306 303 300 298 297 295 295 294 293 293 294 297 300 301 297 298 298 298 298 298 298 297 299 300 304 304 302 297 293 289 286 284 281 277 275 272 271 270 270 268 268 270 271 271 271 271 270
306 305 304 304 302 298 295 294 294 293 295 298 297 297 297 297 298 298 298 298 298 299 300 298 299 299 298 297 294 290 287 283 279 277 275 273 271 270 271 272 272 271 271 272 272 271 273
311 307 305 305 305 303 300 296 295 295 300 300 297 296 295 296 297 297 298 298 297 299 297 295 293 291 292 291 288 285 282 280 277 274 273 272 270 268 268 268 268 269 269 270 272 273 274
309 307 303 300 302 302 301 297 294 294 297 296 295 295 295 296 297 297 297 296 295 295 292 289 289 287 286 285 282 281 278 276 275 274 274 273 271 272 271 271 269 269 270 271 272 271 270
307 307 305 302 302 302 302 302 295 296 296 296 294 293 294 295 295 294 293 291 288 286 285 285 284 283 282 281 280 278 276 276 275 275 274 274 274 274 276 277 277 280 279 278 277 277 275
304 304 303 301 301 303 301 300 299 298 298 297 295 294 293 292 293 292 292 291 289 287 285 284 283 282 281 280 279 278 278 279 279 278 279 278 276 275 276 278 278 277 278 278 278 276 278
301 300 302 301 300 300 299 298 298 297 297 296 295 294 293 292 291 292 291 291 289 288 286 284 283 282 281 279 278 279 279 279 280 281 282 282 282 280 281 282 281 281 280 278 273 274 272
299 299 298 300 299 298 296 294 292 291 290 290 289 289 289 289 289 288 288 287 287 287 286 286 286 285 284 283 282 281 281 280 280 279 279 279 279 280 279 278 277 278 278 278 278 278 277
298 297 296 296 296 296 293 292 291 290 288 288 287 285 285 285 286 287 287 286 288 290 290 290 288 286 285 283 281 280 279 276 274 273 273 273 272 272 272 274 275 273 274 275 275 273 274
295 293 293 293 293 292 291 290 290 289 288 286 285 286 285 286 286 286 287 286 289 290 288 286 285 282 277 276 273 272 271 270 270 270 272 274 274 273 273 276 277 277 275 276 276 278 277
294 294 294 292 290 291 290 290 291 291 290 288 287 287 286 284 285 286 287 291 291 289 286 285 282 276 274 273 273 273 273 272 272 272 273 274 275 275 273 276 277 277 277 279 280 280 280
295 293 291 291 290 291 292 292 291 289 288 288 289 288 287 285 288 289 292 290 288 285 282 279 276 274 273 273 272 272 272 272 273 273 275 276 277 277 276 277 278 276 281 280 279 279 278
295 294 294 294 293 293 292 291 289 288 288 288 289 289 288 289 288 290 287 284 281 277 275 273 272 272 273 272 272 272 270 269 270 271 272 276 277 277 279 280 277 281 279 281 281 280 280
297 295 294 294 293 291 290 288 289 289 289 288 290 292 290 290 289 286 280 275 276 275 275 272 270 277 274 274 277 275 273 272 273 272 273 275 275 277 275 275 274 278 282 281 287 284 282
298 298 296 294 292 291 290 289 288 290 294 293 290 283 281 281 277 283 271 283 290 292 280 275 273 278 279 277 283 286 283 282 278 272 267 263 272 276 273 268 274 276 266 282 285 281 283
300 299 296 294 293 292 291 292 293 297 295 277 270 263 274 277 274 291 275 290 284 296 285 245 262 260 280 270 271 294 286 282 270 279 270 268 270 282 271 267 268 274 277 283 286 289 286
301 300 298 296 294 295 299 300 300 305 290 267 260 265 266 273 269 284 272 276 295 289 293 272 250 245 279 288 291 272 272 265 273 274 273 274 278 277 268 269 266 267 276 284 287 287 285
303 301 299 299 301 306 305 304 309 306 286 263 285 275 265 281 287 267 287 282 270 269 272 275 257 266 276 268 290 285 277 265 270 265 279 265 273 269 253 258 258 264 275 281 283 284 286